GW0579 Weather Reports


time (UTC)temp
C
wind
direction
speed
KPH
gust
KPH
rain 1hr
cm
rain 24hr
cm
rain mn
cm
humidity
%
barometer
mb
20260503223005 31 75 3.2 14.5 0.00 0.00 0.00 36 1010.7
20260503222005 30 91 3.2 14.5 0.00 0.00 0.00 40 1010.9
20260503221006 30 90 3.2 9.7 0.00 0.00 0.00 38 1010.9
20260503220008 30 77 4.8 12.9 0.00 0.00 0.00 36 1011.1
20260503213005 29 29 4.8 14.5 0.00 0.00 0.00 38 1011.4
20260503212005 29 100 3.2 11.3 0.00 0.00 0.00 39 1011.4
20260503210006 28 26 3.2 12.9 0.00 0.00 0.00 42 1011.5
20260503204005 28 98 3.2 9.7 0.00 0.00 0.00 43 1011.7
20260503202008 28 333 4.8 9.7 0.00 0.00 0.00 43 1012.1
20260503200006 27 97 4.8 9.7 0.00 0.00 0.00 45 1012.3
20260503195004 27 73 3.2 9.7 0.00 0.00 0.00 44 1012.5
20260503194004 27 91 1.6 8.0 0.00 0.00 0.00 45 1012.7
20260503192004 26 70 3.2 12.9 0.00 0.00 0.00 45 1012.9
20260503191004 26 77 4.8 16.1 0.00 0.00 0.00 45 1013.1
20260503190009 26 106 3.2 9.7 0.00 0.00 0.00 48 1013.1
20260503185004 26 102 3.2 8.0 0.00 0.00 0.00 47 1013.2
20260503184004 25 331 3.2 12.9 0.00 0.00 0.00 48 1013.3
20260503183004 25 354 4.8 12.9 0.00 0.00 0.00 50 1013.4
20260503182004 24 337 3.2 9.7 0.00 0.00 0.00 52 1013.3
20260503181004 24 86 4.8 14.5 0.00 0.00 0.00 50 1013.4
20260503180008 23 10 3.2 12.9 0.00 0.00 0.00 52 1013.5
20260503175004 23 25 4.8 12.9 0.00 0.00 0.00 54 1013.8
20260503174004 23 79 3.2 12.9 0.00 0.00 0.00 53 1013.8
20260503173004 22 312 3.2 8.0 0.00 0.00 0.00 56 1013.8
20260503172004 22 79 3.2 14.5 0.00 0.00 0.00 56 1013.9
20260503171004 21 136 1.6 9.7 0.00 0.00 0.00 59 1013.9
20260503151004 12 40 0.0 1.6 0.00 0.00 0.00 92 1014.2
20260503081004 12 40 0.0 1.6 0.00 0.00 0.00 82 1014.3
20260503071006 13 40 0.0 1.6 0.00 0.00 0.00 77 1014.2
20260503055006 15 40 0.0 1.6 0.00 0.00 0.00 71 1014.2
20260503054006 15 40 0.0 1.6 0.00 0.00 0.00 69 1014.2
20260503053006 15 40 0.0 0.0 0.00 0.00 0.00 67 1014.2
20260503052007 16 40 0.0 0.0 0.00 0.00 0.00 67 1014.3
20260503050008 17 40 0.0 1.6 0.00 0.00 0.00 66 1014.2
20260503045005 17 40 0.0 1.6 0.00 0.00 0.00 65 1014.1
20260503043006 18 40 0.0 4.8 0.00 0.00 0.00 57 1013.9
20260503042006 18 40 0.0 3.2 0.00 0.00 0.00 60 1013.9
20260503041005 18 40 0.0 3.2 0.00 0.00 0.00 58 1013.7
20260503040007 19 40 0.0 3.2 0.00 0.00 0.00 56 1013.5
20260503035005 20 40 1.6 4.8 0.00 0.00 0.00 54 1013.4
20260503034005 20 101 1.6 4.8 0.00 0.00 0.00 54 1013.3
20260503032005 21 84 3.2 12.9 0.00 0.00 0.00 51 1013.1
20260503031004 21 77 3.2 14.5 0.00 0.00 0.00 51 1013.1
20260503030007 21 93 1.6 6.4 0.00 0.00 0.00 51 1012.9
20260503025006 22 94 1.6 8.0 0.00 0.00 0.00 50 1012.8
20260503024004 22 69 1.6 3.2 0.00 0.00 0.00 51 1012.7
20260503023005 22 85 3.2 12.9 0.00 0.00 0.00 49 1012.6
20260503020008 24 79 1.6 8.0 0.00 0.00 0.00 46 1012.5
20260503015005 25 86 3.2 9.7 0.00 0.00 0.00 47 1012.4
20260503013006 25 42 3.2 6.4 0.00 0.00 0.00 45 1012.6
20260503012011 25 71 3.2 14.5 0.00 0.00 0.00 45 1012.6
20260503011004 25 56 3.2 12.9 0.00 0.00 0.00 45 1012.6
20260503010008 25 88 3.2 14.5 0.00 0.00 0.00 45 1012.7
20260503005004 26 129 3.2 8.0 0.00 0.00 0.00 44 1012.6
20260503004007 26 93 3.2 14.5 0.00 0.00 0.00 45 1012.8
20260503002005 26 111 1.6 4.8 0.00 0.00 0.00 46 1012.8
20260503000008 25 72 4.8 9.7 0.00 0.00 0.00 45 1012.9
20260502235006 25 82 3.2 14.5 0.00 0.00 0.00 46 1013.1
20260502234005 25 67 4.8 12.9 0.00 0.00 0.00 47 1013.4
20260502233004 25 85 6.4 16.1 0.00 0.00 0.00 47 1013.5
20260502231006 26 354 3.2 8.0 0.00 0.00 0.00 48 1013.7
20260502230007 26 113 3.2 11.3 0.00 0.00 0.00 48 1013.8
20260502225004 26 69 3.2 12.9 0.00 0.00 0.00 48 1013.9
20260502224005 25 49 3.2 9.7 0.00 0.00 0.00 51 1014.0